Tracking 30102 objects as of 12-Dec-2024
HD Live streaming from Space Station
objects crossing your sky now

INSAT 3DS

Track INSAT 3DS now!


NORAD ID: 58990
Int'l Code: 2024-033A
Perigee: 35,786.8 km
Apogee: 35,802.1 km
Inclination: 0.0 °
Period: 1,436.1 minutes
Semi major axis: 42165 km
RCS: Unknown
Launch date: February 17, 2024
Source: India (IND)
Launch site: SRIHARIKOTA (SRI)
Your satellite tracking list
Your tracking list is empty




NASA's NSSDC Master Catalog

Two Line Element Set (TLE):
1 58990U 24033A   24346.60535345 -.00000140  00000-0  00000+0 0  9998
2 58990   0.0169 303.9371 0001808 318.2665 118.6130  1.00269264  3286
Source of the keplerian elements: AFSPC